| time (UTC) | temp C | wind direction | speed KPH | gust KPH | rain 1hr cm | rain 24hr cm | rain mn cm | humidity % | barometer mb |
| 20260901041545 | 17 | 261 | 1.6 | 4.8 | 0.00 | 0.00 | 0.00 | 74 | 1017.6 |
| 20260901040030 | 17 | 267 | 0.0 | 6.4 | 0.00 | 0.00 | 0.00 | 73 | 1017.5 |
| 20260901034516 | 17 | 285 | 1.6 | 4.8 | 0.00 | 0.00 | 0.00 | 73 | 1017.3 |
| 20260901033054 | 17 | 302 | 0.0 | 4.8 | 0.00 | 0.00 | 0.00 | 72 | 1017.4 |
| 20260901031525 | 18 | 318 | 0.0 | 4.8 | 0.00 | 0.00 | 0.00 | 70 | 1017.1 |
| 20260901030032 | 18 | 43 | 0.0 | 3.2 | 0.00 | 0.00 | 0.00 | 70 | 1017.1 |
| 20260901024552 | 18 | 279 | 1.6 | 4.8 | 0.00 | 0.00 | 0.00 | 67 | 1017.3 |
| 20260901023037 | 19 | 279 | 0.0 | 8.0 | 0.00 | 0.00 | 0.00 | 66 | 1017.2 |
| 20260901021551 | 19 | 284 | 3.2 | 9.7 | 0.00 | 0.00 | 0.00 | 67 | 1017.0 |
| 20260901020003 | 18 | 346 | 1.6 | 8.0 | 0.00 | 0.00 | 0.00 | 71 | 1017.2 |
| 20260901014520 | 18 | 265 | 1.6 | 6.4 | 0.00 | 0.00 | 0.00 | 71 | 1017.2 |
| 20260901013027 | 20 | 268 | 3.2 | 8.0 | 0.00 | 0.00 | 0.00 | 68 | 1017.1 |
| 20260901011523 | 19 | 279 | 1.6 | 4.8 | 0.00 | 0.00 | 0.00 | 70 | 1017.2 |
| 20260901010008 | 21 | 289 | 3.2 | 6.4 | 0.00 | 0.00 | 0.00 | 64 | 1017.1 |
| 20260901004512 | 20 | 329 | 1.6 | 6.4 | 0.00 | 0.00 | 0.00 | 70 | 1017.0 |
| 20260901003034 | 20 | 290 | 0.0 | 4.8 | 0.00 | 0.00 | 0.00 | 73 | 1017.1 |
| 20260901001522 | 20 | 256 | 3.2 | 8.0 | 0.00 | 0.00 | 0.00 | 71 | 1017.0 |
| 20260901000014 | 20 | 350 | 0.0 | 4.8 | 0.00 | 0.00 | 0.00 | 76 | 1017.0 |
| 20260831234517 | 20 | 340 | 3.2 | 6.4 | 0.00 | 0.00 | 0.00 | 79 | 1017.0 |
| 20260831233058 | 20 | 292 | 0.0 | 3.2 | 0.00 | 0.00 | 0.00 | 80 | 1016.8 |
| 20260831231508 | 20 | 287 | 0.0 | 4.8 | 0.00 | 0.00 | 0.00 | 82 | 1016.8 |
| 20260831230106 | 20 | 279 | 0.0 | 6.4 | 0.00 | 0.00 | 0.00 | 82 | 1016.8 |
| 20260831224603 | 20 | 315 | 0.0 | 3.2 | 0.00 | 0.00 | 0.00 | 82 | 1016.7 |
| 20260831223012 | 20 | 321 | 0.0 | 3.2 | 0.00 | 0.00 | 0.00 | 82 | 1016.7 |
| 20260831221604 | 20 | 350 | 0.0 | 0.0 | 0.00 | 0.00 | 0.00 | 82 | 1016.6 |
| 20260831220109 | 21 | 334 | 0.0 | 1.6 | 0.00 | 0.00 | 0.00 | 81 | 1016.4 |
| 20260831214537 | 21 | 279 | 0.0 | 6.4 | 0.00 | 0.00 | 0.00 | 81 | 1016.4 |
| 20260831213028 | 21 | 314 | 0.0 | 4.8 | 0.00 | 0.00 | 0.00 | 80 | 1016.5 |
| 20260831211604 | 22 | 49 | 1.6 | 6.4 | 0.00 | 0.00 | 0.00 | 78 | 1016.4 |
| 20260831210020 | 22 | 286 | 0.0 | 6.4 | 0.00 | 0.00 | 0.00 | 78 | 1016.3 |
| 20260831204600 | 22 | 288 | 3.2 | 8.0 | 0.00 | 0.00 | 0.00 | 80 | 1016.1 |
| 20260831203115 | 21 | 354 | 0.0 | 4.8 | 0.00 | 0.00 | 0.00 | 81 | 1016.2 |
| 20260831201510 | 22 | 294 | 0.0 | 1.6 | 0.00 | 0.00 | 0.00 | 80 | 1015.9 |
| 20260831200103 | 22 | 353 | 0.0 | 3.2 | 0.00 | 0.00 | 0.00 | 81 | 1015.5 |
| 20260831194519 | 22 | 99 | 0.0 | 4.8 | 0.00 | 0.00 | 0.00 | 80 | 1015.5 |
| 20260831193015 | 22 | 98 | 0.0 | 3.2 | 0.00 | 0.00 | 0.00 | 79 | 1015.3 |
| 20260831191544 | 22 | 326 | 0.0 | 1.6 | 0.00 | 0.00 | 0.00 | 80 | 1015.1 |
| 20260831190041 | 22 | 299 | 0.0 | 1.6 | 0.00 | 0.00 | 0.00 | 79 | 1014.9 |
| 20260831184600 | 22 | 323 | 0.0 | 3.2 | 0.00 | 0.00 | 0.00 | 80 | 1014.8 |
| 20260831183003 | 23 | 269 | 0.0 | 4.8 | 0.00 | 0.00 | 0.00 | 79 | 1014.5 |
| 20260831181542 | 23 | 279 | 0.0 | 3.2 | 0.00 | 0.00 | 0.00 | 78 | 1014.4 |
| 20260831180045 | 25 | 277 | 0.0 | 0.0 | 0.00 | 0.00 | 0.00 | 76 | 1014.3 |
| 20260831174537 | 26 | 277 | 0.0 | 0.0 | 0.00 | 0.00 | 0.00 | 73 | 1014.2 |
| 20260831173041 | 27 | 277 | 0.0 | 1.6 | 0.00 | 0.00 | 0.00 | 69 | 1014.2 |
| 20260831171506 | 28 | 277 | 0.0 | 0.0 | 0.00 | 0.00 | 0.00 | 64 | 1014.2 |
| 20260831170043 | 28 | 277 | 0.0 | 3.2 | 0.00 | 0.00 | 0.00 | 63 | 1014.3 |
| 20260831164556 | 28 | 281 | 0.0 | 4.8 | 0.00 | 0.00 | 0.00 | 61 | 1014.3 |
| 20260831163042 | 30 | 266 | 0.0 | 1.6 | 0.00 | 0.00 | 0.00 | 55 | 1014.2 |
| 20260831161550 | 30 | 281 | 1.6 | 4.8 | 0.00 | 0.00 | 0.00 | 54 | 1014.3 |
| 20260831160003 | 30 | 252 | 0.0 | 4.8 | 0.00 | 0.00 | 0.00 | 54 | 1014.3 |
| 20260831154517 | 30 | 229 | 0.0 | 4.8 | 0.00 | 0.00 | 0.00 | 51 | 1014.5 |
| 20260831153045 | 30 | 156 | 0.0 | 3.2 | 0.00 | 0.00 | 0.00 | 51 | 1014.5 |
| 20260831151527 | 30 | 203 | 0.0 | 4.8 | 0.00 | 0.00 | 0.00 | 49 | 1014.6 |
| 20260831150016 | 30 | 269 | 0.0 | 8.0 | 0.00 | 0.00 | 0.00 | 51 | 1014.6 |
| 20260831144542 | 30 | 224 | 0.0 | 4.8 | 0.00 | 0.00 | 0.00 | 51 | 1014.7 |
| 20260831143114 | 30 | 246 | 3.2 | 6.4 | 0.00 | 0.00 | 0.00 | 50 | 1014.8 |
| 20260831141555 | 30 | 65 | 0.0 | 9.7 | 0.00 | 0.00 | 0.00 | 51 | 1014.7 |
| 20260831140104 | 31 | 188 | 0.0 | 8.0 | 0.00 | 0.00 | 0.00 | 49 | 1014.7 |
| 20260831134536 | 30 | 188 | 1.6 | 11.3 | 0.00 | 0.00 | 0.00 | 52 | 1014.8 |
| 20260831133025 | 30 | 281 | 3.2 | 9.7 | 0.00 | 0.00 | 0.00 | 49 | 1014.9 |
| 20260831131518 | 30 | 161 | 0.0 | 9.7 | 0.00 | 0.00 | 0.00 | 52 | 1015.0 |
| 20260831130013 | 30 | 237 | 1.6 | 11.3 | 0.00 | 0.00 | 0.00 | 53 | 1015.0 |
| 20260831124553 | 30 | 177 | 0.0 | 9.7 | 0.00 | 0.00 | 0.00 | 52 | 1015.3 |
| 20260831123025 | 29 | 3 | 1.6 | 9.7 | 0.00 | 0.00 | 0.00 | 51 | 1015.4 |
| 20260831121558 | 29 | 246 | 4.8 | 12.9 | 0.00 | 0.00 | 0.00 | 51 | 1015.5 |
| 20260831120039 | 29 | 222 | 1.6 | 6.4 | 0.00 | 0.00 | 0.00 | 54 | 1015.5 |
| 20260831114535 | 30 | 230 | 1.6 | 14.5 | 0.00 | 0.00 | 0.00 | 52 | 1015.7 |
| 20260831113044 | 30 | 263 | 0.0 | 8.0 | 0.00 | 0.00 | 0.00 | 53 | 1016.1 |
| 20260831111601 | 29 | 181 | 3.2 | 11.3 | 0.00 | 0.00 | 0.00 | 54 | 1016.0 |
| 20260831110022 | 30 | 192 | 0.0 | 8.0 | 0.00 | 0.00 | 0.00 | 54 | 1016.1 |
| 20260831104502 | 28 | 198 | 0.0 | 4.8 | 0.00 | 0.00 | 0.00 | 53 | 1016.2 |
| 20260831103020 | 29 | 192 | 0.0 | 6.4 | 0.00 | 0.00 | 0.00 | 52 | 1016.1 |
| 20260831101556 | 28 | 65 | 1.6 | 6.4 | 0.00 | 0.00 | 0.00 | 54 | 1016.4 |
| 20260831100048 | 27 | 111 | 6.4 | 11.3 | 0.00 | 0.00 | 0.00 | 59 | 1016.3 |
| 20260831094607 | 27 | 31 | 0.0 | 4.8 | 0.00 | 0.00 | 0.00 | 61 | 1016.6 |
| 20260831093027 | 27 | 315 | 3.2 | 6.4 | 0.00 | 0.00 | 0.00 | 59 | 1016.6 |
| 20260831091546 | 27 | 283 | 0.0 | 8.0 | 0.00 | 0.00 | 0.00 | 68 | 1016.5 |
| 20260831090024 | 26 | 224 | 6.4 | 9.7 | 0.00 | 0.00 | 0.00 | 65 | 1016.7 |
| 20260831084608 | 26 | 258 | 0.0 | 4.8 | 0.00 | 0.00 | 0.00 | 66 | 1016.6 |
| 20260831083103 | 26 | 238 | 1.6 | 6.4 | 0.00 | 0.00 | 0.00 | 64 | 1016.6 |
| 20260831081538 | 25 | 296 | 1.6 | 4.8 | 0.00 | 0.00 | 0.00 | 66 | 1016.5 |
| 20260831080002 | 25 | 356 | 1.6 | 6.4 | 0.00 | 0.00 | 0.00 | 67 | 1016.5 |
| 20260831074520 | 25 | 286 | 1.6 | 4.8 | 0.00 | 0.00 | 0.00 | 67 | 1016.3 |
| 20260831073036 | 24 | 277 | 0.0 | 6.4 | 0.00 | 0.00 | 0.00 | 69 | 1016.5 |
| 20260831071604 | 23 | 30 | 6.4 | 14.5 | 0.00 | 0.00 | 0.00 | 70 | 1016.4 |
| 20260831070103 | 23 | 13 | 4.8 | 14.5 | 0.00 | 0.00 | 0.00 | 71 | 1016.4 |
| 20260831064550 | 23 | 57 | 4.8 | 12.9 | 0.00 | 0.00 | 0.00 | 71 | 1016.5 |
| 20260831063050 | 22 | 256 | 0.0 | 3.2 | 0.00 | 0.00 | 0.00 | 75 | 1016.5 |
| 20260831061543 | 21 | 292 | 1.6 | 6.4 | 0.00 | 0.00 | 0.00 | 77 | 1016.5 |
| 20260831060105 | 21 | 279 | 0.0 | 6.4 | 0.00 | 0.00 | 0.00 | 77 | 1016.4 |
| 20260831054531 | 21 | 273 | 3.2 | 4.8 | 0.00 | 0.00 | 0.00 | 78 | 1016.5 |
| 20260831053018 | 20 | 45 | 0.0 | 4.8 | 0.00 | 0.00 | 0.00 | 80 | 1016.5 |
| 20260831051503 | 20 | 244 | 1.6 | 4.8 | 0.00 | 0.00 | 0.00 | 78 | 1016.5 |
| 20260831050001 | 21 | 305 | 3.2 | 16.1 | 0.00 | 0.00 | 0.00 | 75 | 1016.4 |
| 20260831044536 | 21 | 256 | 0.0 | 9.7 | 0.00 | 0.00 | 0.00 | 74 | 1016.3 |
| 20260831043101 | 21 | 326 | 6.4 | 17.7 | 0.00 | 0.00 | 0.00 | 75 | 1016.2 |